map of ABV home
ABV - Airport
Location
City:  Abuja, Abuja Federal Capital Territory, Nigeria
Name:Nnamdi Azikiwe International Airport
ICAO:DNAA
IATA:ABV

Details
Type:Airport (Aerodrome, Airfield)
Use:Public/Civil, International (customs port of entry)
Latitude:900'24"N (9.006792)
Longitude:715'47"E (7.263172)
Datum:WGS 1984
Elevation:1123 ft (342 m)
Variation:0.59W (WMM2015v2 magnetic declination)
0.12 annual change
Runways:1
Longest:11842 × 197 ft (3609 × 60 m), paved

Time
Time Zone:UTC+1
Local Time:

Weather
METAR:DNAA 041400Z 25006KT 210V340 8000 NSC 37/13 Q1009 NOSIG
TAF:DNAA 040930Z 0412/0518 18004KT 8000 NSC PROB30
TEMPO 0412/0416 24006KT SCT012

Related Locations
Nearby:
Farthest:AAU: 12121 mi / 19506 km
Asau, WS

Find:

   beyond  
but within

Other Information
Maps:
NOTAMs:
Links:
Sources:

  
  • flag of Nigeria
  

Sectional Chart

Flight Planning
at skyvector.com

Satellite Image

Google Maps Satellite view

 

Copyright © 2004-2019 Karl L. Swartz. All rights reserved.
The Great Circle Mapper name and logo are trademarks of the Great Circle Mapper.
All other trademarks mentioned herein belong to their respective owners.
Please see credits for attibutions and further copyright information.

  Follow gcmap on Facebook Follow gcmap on Twitter GCmap on LinkedIn

hCard Microformat

Geo Microformat